(164) Eva
ephemeris date magn radius delta ra dec elong phase
Today16 Jun 202612.21.942 AU1.350 AU23h03m-34°42'109.5°29.5°
Opposition31 Aug 202611.01.754 AU0.931 AU00h36m-53°17'129.4°26.4°
(164) Eva - 2026-06-16
astro.vanbuitenen.nl


 
-1 year
-1 month
-1 day
Now
+1 day
+1 month
+1 year

The interactive orbit chart above shows the body's path through the solar system and its position at the given date. Green and blue lines are shown perpendicular to the ecliptic plane: Green if the path is above the ecliptic plane, blue if it is below. (Left-click and drag to rotate the view; Right-click and drag to move the view; Use scroll wheel to zoom in our out.)

The orbital elements of Eva are:

            e (Eccentricity)                : 0.3462488
            a (Semimajor axis)              : 2.6327804
            i (Inclination)                 : 24.47311
            Ω (Longitude of ascending node) : 76.77959
            ω (Argument of perihelion)      : 284.00697
            M (Mean anomaly)                : 330.59377
            Epoch                           : 2026 Jun 09

            L (Longitude of perihelion)     : 2.10692
            B (Latitude of perihelion)      : -23.70004
            P (Orbital period in years)     : 4.27            
        

The light curve chart below shows the estimated development of the minor planet's magnitude.


The all-sky chart below shows the path of the minor planet over the same period as the light curve. The current position is marked yellow.





The following chart shows the path of the minor planet in the next few days. The field of view is optimized for (~10x50) binoculars and finderscopes.




Ephemerides:
Date       Time       RA (2000)    DEC (2000)    delta   radius  elong  phase   PA    magn
2026-06-16 00:00 UT   23 03 06.5   -34 42 41     1.350    1.942  109.5   29.5   255   12.2 
2026-06-16 14:48 UT   23 04 21.9   -34 49 31     1.344    1.940  109.8   29.5   255   12.1 
2026-06-17 00:00 UT   23 05 08.7   -34 53 48     1.340    1.939  110.0   29.5   255   12.1 
2026-06-18 00:00 UT   23 07 10.6   -35 05 07     1.330    1.936  110.5   29.5   255   12.1 
2026-06-19 00:00 UT   23 09 12.0   -35 16 38     1.320    1.932  111.0   29.4   256   12.1 
2026-06-20 00:00 UT   23 11 13.0   -35 28 20     1.310    1.929  111.4   29.4   256   12.1 
2026-06-21 00:00 UT   23 13 13.6   -35 40 14     1.300    1.926  111.9   29.3   256   12.0 
2026-06-22 00:00 UT   23 15 13.7   -35 52 20     1.291    1.923  112.4   29.3   257   12.0 
2026-06-23 00:00 UT   23 17 13.4   -36 04 38     1.281    1.920  112.9   29.2   257   12.0 
2026-06-24 00:00 UT   23 19 12.5   -36 17 08     1.272    1.917  113.3   29.1   257   12.0 
2026-06-25 00:00 UT   23 21 11.1   -36 29 49     1.262    1.913  113.8   29.1   258   12.0 
2026-06-26 00:00 UT   23 23 09.2   -36 42 41     1.253    1.910  114.3   29.0   258   11.9 
2026-06-27 00:00 UT   23 25 06.7   -36 55 46     1.244    1.907  114.7   29.0   258   11.9 
2026-06-28 00:00 UT   23 27 03.6   -37 09 01     1.235    1.904  115.2   28.9   259   11.9 
2026-06-29 00:00 UT   23 28 59.8   -37 22 28     1.226    1.901  115.6   28.8   259   11.9 
2026-06-30 00:00 UT   23 30 55.4   -37 36 06     1.218    1.898  116.1   28.8   260   11.9 
2026-07-01 00:00 UT   23 32 50.3   -37 49 56     1.209    1.895  116.5   28.7   260   11.8 
2026-07-02 00:00 UT   23 34 44.5   -38 03 56     1.201    1.892  116.9   28.6   261   11.8 
2026-07-03 00:00 UT   23 36 37.9   -38 18 07     1.192    1.889  117.4   28.5   261   11.8 
2026-07-04 00:00 UT   23 38 30.5   -38 32 29     1.184    1.886  117.8   28.5   262   11.8 
2026-07-05 00:00 UT   23 40 22.3   -38 47 02     1.176    1.883  118.2   28.4   262   11.8 


    Terminology:
            
    delta:  distance between minor planet and earth in AU
    radius: distance between minor planet and sun in AU
    magn:   magnitude (brightness) estimate    
    ra:     right ascension in hours (24h = 360deg)
    dec:    declination in degrees
    elong:  elongation in degrees (angle sun-earth-minor planet)    
    phase:  phase angle in degrees (angle sun-minor planet-earth)        
    AU:     Astronomical Unit (mean distance between earth and sun: 149597870.7 km
    

Orbital elements provided by the MPC (Minor Planet Center).
Calculations by a modified version of AAPlus, a C# implementation of the AA+ project by PJ Naughter from the algorithms presented in the book "Astronomical Algorithms" by Jean Meeus.
NGC2000 dso catalog and star labels from VizieR as provided by the Strasbourg astronomical Data Center.
Tycho2 catalog from the ESO archive.